Clyde, Nunavut

8:17 PM ADT on June 23, 2017 (GMT -0300)
Clyde

Weather History for CYCY - October, 2012

Change the Weather History Date:

Sunday, October 21, 2012

  Actual Average Record
Temperature  
Mean Temperature 20 °F -  
Max Temperature 26 °F 12 °F 32 °F (2003)
Min Temperature 15 °F 0 °F -9 °F (1999)
Degree Days  
Heating Degree Days 44    
Moisture  
Dew Point 19 °F    
Average Humidity 86    
Maximum Humidity 100    
Minimum Humidity 69    
Precipitation  
Precipitation 0.00 in 0.03 in - ()
Sea Level Pressure  
Sea Level Pressure 30.40 in    
Wind  
Wind Speed 9 mph ()    
Max Wind Speed 22 mph    
Max Gust Speed -    
Visibility 8.8 miles    
Events Snow    
Averages and records for this station are not official NWS values.
T = Trace of Precipitation, MM = Missing Value Source: Averaged Metar Reports

Daily Weather History Graph

Daily Weather History Graph

Search for Another Location

Airport or City:

Trip Planner

Search our weather history database for the weather conditions in past years. The results will help you decide how hot, cold, wet, or windy it might be!

Date:

Astronomy

Oct. 21, 2012 Rise Set
Actual Time 9:18 AM ADT 5:16 PM ADT
Civil Twilight 8:10 AM ADT 6:24 PM ADT
Nautical Twilight 6:57 AM ADT 7:37 PM ADT
Astronomical Twilight 5:44 AM ADT 8:49 PM ADT
Moon 5:12 PM ADT (10/21) 9:41 PM ADT (10/21)
Length of Visible Light 10h 13m
Length of Day
7h 57m
Waxing Crescent, 44% of the Moon is Illuminated
Oct 21
Waxing Crescent
Oct 22
First Quarter
Oct 29
Full
Nov 6
Last Quarter
Nov 13
New

Hourly Weather History & Observations

Time (ADT) Temp. Windchill Dew Point Humidity Pressure Visibility Wind Dir Wind Speed Gust Speed Precip Events Conditions
12:59 AM 23.0 °F 15.8 °F 19.4 °F 86% 30.28 in 9.0 mi West 5.8 mph - N/A   Overcast
1:00 AM 23.0 °F 15.8 °F 19.4 °F 86% 30.29 in 9.0 mi West 5.8 mph - N/A   Overcast
2:00 AM 21.2 °F 10.1 °F 17.6 °F 86% 30.30 in 9.0 mi WNW 10.4 mph - N/A   Overcast
3:00 AM 20 °F - 15 °F 75% 30.31 in 9 mi West 10.4 mph - -  
4:00 AM 21.2 °F 8.3 °F 14.0 °F 74% 30.33 in 9.0 mi WNW 13.8 mph - N/A   Overcast
5:00 AM 21.2 °F 7.8 °F 15.8 °F 80% 30.35 in 9.0 mi WNW 15.0 mph - N/A   Overcast
5:36 AM 21.2 °F 5.2 °F 19.4 °F 93% 30.33 in 9.0 mi WNW 21.9 mph - N/A   Overcast
6:00 AM 22 °F - 20 °F 90% 30.35 in 9 mi WNW 19.6 mph - -   Overcast
6:00 AM 23.0 °F 8.3 °F 21.2 °F 93% 30.35 in 9.0 mi WNW 19.6 mph - N/A   Overcast
6:12 AM 23.0 °F 8.7 °F 21.2 °F 93% 30.34 in 7.0 mi WNW 18.4 mph - N/A Snow Light Snow
6:38 AM 23.0 °F 9.2 °F 21.2 °F 93% 30.34 in 7.0 mi West 17.3 mph - N/A   Overcast
6:47 AM 23.0 °F 10.1 °F 21.2 °F 93% 30.35 in 7.0 mi West 15.0 mph - N/A Snow Light Snow
7:00 AM 23.0 °F 10.1 °F 21.2 °F 93% 30.37 in 6.0 mi West 15.0 mph - N/A Snow Light Snow
8:00 AM 23.0 °F 11.7 °F 19.4 °F 86% 30.38 in 15.0 mi West 11.5 mph - N/A Snow Light Snow
9:00 AM 21 °F - 20 °F 94% 30.39 in 9 mi West 3.5 mph - -  
9:00 AM 21.2 °F - 19.4 °F 93% 30.39 in 15.0 mi Calm Calm - N/A Snow Light Snow
9:21 AM - - - N/A% - 25.0 mi NW 4.6 mph - N/A   Mostly Cloudy
10:00 AM 15.8 °F 6.1 °F 15.8 °F 100% 30.40 in 25.0 mi North 6.9 mph - N/A   Mostly Cloudy
11:00 AM 23.0 °F 14.7 °F 21.2 °F 93% 30.42 in 20.0 mi North 6.9 mph - N/A   Mostly Cloudy
11:30 AM - - - N/A% - 15.0 mi NW 6.9 mph - N/A   Unknown
11:50 AM - - - N/A% - 0.8 mi NNE 4.6 mph - N/A   Unknown
12:00 PM 25 °F - 25 °F 98% 30.42 in 0 mi NNE 5.8 mph - - Snow Light Snow
12:00 PM 24.8 °F 19.1 °F 24.8 °F 100% 30.42 in 0.5 mi NNE 4.6 mph - N/A Snow Snow
1:00 PM 26.6 °F 16.8 °F 23.0 °F 86% 30.43 in 2.5 mi NNE 10.4 mph - N/A Snow Light Snow
2:00 PM 26.6 °F 15.7 °F 21.2 °F 80% 30.44 in 10.0 mi NNE 12.7 mph - N/A Snow Light Snow
3:00 PM 26 °F - 20 °F 69% 30.45 in 9 mi NNE 12.7 mph - -   Overcast
3:00 PM 26.6 °F 15.7 °F 19.4 °F 74% 30.45 in 15.0 mi NNE 12.7 mph - N/A Snow Light Snow
4:00 PM 21.2 °F 11.7 °F 15.8 °F 80% 30.45 in 15.0 mi NE 8.1 mph - N/A Snow Light Snow
4:49 PM 21.2 °F 11.7 °F 17.6 °F 86% 30.45 in 2.5 mi NE 8.1 mph - N/A   Overcast
5:00 PM 23.0 °F 13.9 °F 17.6 °F 80% 30.46 in 9.0 mi NE 8.1 mph - N/A   Overcast
6:00 PM 24 °F - 18 °F 70% 30.48 in 9 mi Calm Calm - -   Overcast
6:00 PM 23.0 °F - 17.6 °F 80% 30.48 in 9.0 mi Calm Calm - N/A   Overcast
7:00 PM 23.0 °F 13.9 °F 19.4 °F 86% 30.49 in 9.0 mi NW 8.1 mph - N/A   Overcast
8:00 PM 23.0 °F 13.9 °F 17.6 °F 80% 30.49 in 9.0 mi NW 8.1 mph - N/A   Overcast
9:00 PM 22 °F - 18 °F 80% 30.49 in 9 mi NW 9.2 mph - -   Overcast
9:00 PM 23.0 °F 13.1 °F 17.6 °F 80% 30.49 in 9.0 mi NW 9.2 mph - N/A   Overcast
10:00 PM 21.2 °F 8.9 °F 19.4 °F 93% 30.49 in 9.0 mi NW 12.7 mph - N/A   Overcast
11:00 PM 21.2 °F 9.5 °F 19.4 °F 93% 30.49 in 9.0 mi WNW 11.5 mph - N/A   Overcast